| time (UTC) | temp C | wind direction | speed KPH | gust KPH | rain 1hr cm | rain 24hr cm | rain mn cm | humidity % | barometer mb |
| 20260510045404 | 23 | 131 | 8.0 | 16.1 | 0.00 | 0.05 | 0.05 | 85 | 1010.4 |
| 20260510044904 | 23 | 137 | 8.0 | 16.1 | 0.00 | 0.05 | 0.05 | 85 | 1010.4 |
| 20260510044404 | 23 | 134 | 8.0 | 12.9 | 0.00 | 0.05 | 0.05 | 86 | 1010.4 |
| 20260510043405 | 23 | 142 | 4.8 | 8.0 | 0.00 | 0.05 | 0.05 | 85 | 1010.4 |
| 20260510042904 | 23 | 147 | 3.2 | 4.8 | 0.00 | 0.05 | 0.05 | 85 | 1010.3 |
| 20260510042404 | 23 | 150 | 3.2 | 8.0 | 0.00 | 0.05 | 0.05 | 85 | 1010.4 |
| 20260510041904 | 23 | 144 | 3.2 | 8.0 | 0.00 | 0.05 | 0.05 | 84 | 1010.4 |
| 20260510041404 | 23 | 142 | 3.2 | 4.8 | 0.00 | 0.05 | 0.05 | 84 | 1010.3 |
| 20260510040906 | 23 | 148 | 3.2 | 8.0 | 0.00 | 0.05 | 0.05 | 84 | 1010.3 |
| 20260510040404 | 23 | 141 | 3.2 | 9.7 | 0.00 | 0.05 | 0.05 | 84 | 1010.3 |
| 20260510035904 | 23 | 141 | 4.8 | 9.7 | 0.00 | 0.05 | 0.05 | 83 | 1010.2 |
| 20260510035404 | 23 | 137 | 3.2 | 11.3 | 0.00 | 0.05 | 0.05 | 83 | 1010.2 |
| 20260510034904 | 23 | 129 | 8.0 | 11.3 | 0.00 | 0.05 | 0.05 | 83 | 1010.2 |
| 20260510034404 | 23 | 134 | 4.8 | 9.7 | 0.00 | 0.05 | 0.05 | 83 | 1010.1 |
| 20260510033905 | 23 | 130 | 4.8 | 11.3 | 0.00 | 0.05 | 0.05 | 83 | 1010.0 |
| 20260510033404 | 23 | 131 | 4.8 | 11.3 | 0.00 | 0.05 | 0.05 | 83 | 1010.1 |
| 20260510032404 | 24 | 134 | 4.8 | 9.7 | 0.00 | 0.05 | 0.05 | 83 | 1009.9 |
| 20260510031904 | 24 | 138 | 4.8 | 9.7 | 0.00 | 0.05 | 0.05 | 83 | 1009.9 |
| 20260510030904 | 24 | 130 | 3.2 | 8.0 | 0.00 | 0.05 | 0.05 | 83 | 1009.7 |
| 20260510030405 | 24 | 134 | 4.8 | 11.3 | 0.00 | 0.05 | 0.05 | 83 | 1009.7 |
| 20260510025904 | 24 | 142 | 4.8 | 14.5 | 0.00 | 0.05 | 0.05 | 83 | 1009.6 |
| 20260510025404 | 25 | 130 | 8.0 | 14.5 | 0.00 | 0.05 | 0.05 | 83 | 1009.5 |
| 20260510024905 | 25 | 129 | 8.0 | 12.9 | 0.00 | 0.05 | 0.05 | 82 | 1009.4 |
| 20260510024405 | 25 | 129 | 8.0 | 16.1 | 0.00 | 0.05 | 0.05 | 82 | 1009.3 |
| 20260510023904 | 25 | 125 | 8.0 | 16.1 | 0.00 | 0.05 | 0.05 | 82 | 1009.3 |
| 20260510023405 | 25 | 134 | 9.7 | 16.1 | 0.00 | 0.05 | 0.05 | 82 | 1009.2 |
| 20260510022405 | 25 | 128 | 6.4 | 11.3 | 0.00 | 0.05 | 0.05 | 81 | 1009.1 |
| 20260510021904 | 25 | 130 | 4.8 | 9.7 | 0.00 | 0.05 | 0.05 | 80 | 1009.1 |
| 20260510021405 | 25 | 121 | 8.0 | 11.3 | 0.00 | 0.05 | 0.05 | 80 | 1009.1 |
| 20260510015905 | 25 | 125 | 6.4 | 9.7 | 0.00 | 0.05 | 0.05 | 78 | 1008.9 |
| 20260510015405 | 25 | 123 | 6.4 | 9.7 | 0.00 | 0.05 | 0.05 | 77 | 1008.8 |
| 20260510014905 | 25 | 125 | 4.8 | 8.0 | 0.00 | 0.05 | 0.05 | 76 | 1008.8 |
| 20260510014409 | 25 | 128 | 4.8 | 9.7 | 0.00 | 0.05 | 0.05 | 75 | 1008.8 |
| 20260510013904 | 25 | 128 | 4.8 | 9.7 | 0.00 | 0.05 | 0.05 | 74 | 1008.7 |
| 20260510013404 | 26 | 127 | 4.8 | 8.0 | 0.00 | 0.05 | 0.05 | 73 | 1008.7 |
| 20260510012404 | 26 | 127 | 4.8 | 8.0 | 0.00 | 0.05 | 0.05 | 71 | 1008.6 |
| 20260510011905 | 26 | 132 | 3.2 | 9.7 | 0.00 | 0.05 | 0.05 | 69 | 1008.6 |
| 20260510011404 | 27 | 129 | 4.8 | 9.7 | 0.00 | 0.05 | 0.05 | 68 | 1008.5 |
| 20260510010905 | 27 | 121 | 4.8 | 9.7 | 0.00 | 0.05 | 0.05 | 67 | 1008.5 |
| 20260510010405 | 27 | 120 | 6.4 | 11.3 | 0.00 | 0.05 | 0.05 | 66 | 1008.4 |
| 20260510005904 | 27 | 123 | 6.4 | 11.3 | 0.00 | 0.05 | 0.05 | 65 | 1008.5 |
| 20260510005404 | 27 | 126 | 6.4 | 11.3 | 0.00 | 0.05 | 0.05 | 64 | 1008.4 |
| 20260510004904 | 28 | 125 | 8.0 | 12.9 | 0.00 | 0.05 | 0.05 | 63 | 1008.4 |
| 20260510003405 | 28 | 126 | 8.0 | 16.1 | 0.00 | 0.05 | 0.05 | 60 | 1008.3 |
| 20260510002905 | 28 | 123 | 8.0 | 16.1 | 0.00 | 0.05 | 0.05 | 58 | 1008.3 |
| 20260510002405 | 28 | 120 | 9.7 | 16.1 | 0.00 | 0.05 | 0.05 | 58 | 1008.2 |
| 20260510000905 | 29 | 124 | 11.3 | 22.5 | 0.00 | 0.05 | 0.05 | 55 | 1008.1 |
| 20260510000404 | 29 | 124 | 14.5 | 22.5 | 0.00 | 0.05 | 0.05 | 54 | 1008.0 |
| 20260509235904 | 29 | 127 | 9.7 | 19.3 | 0.00 | 0.05 | 0.05 | 53 | 1007.9 |
| 20260509235405 | 30 | 113 | 9.7 | 19.3 | 0.00 | 0.05 | 0.05 | 51 | 1007.9 |
| 20260509233905 | 30 | 121 | 14.5 | 25.7 | 0.00 | 0.05 | 0.05 | 47 | 1007.8 |
| 20260509233404 | 30 | 125 | 9.7 | 20.9 | 0.00 | 0.05 | 0.05 | 50 | 1007.8 |
| 20260509232905 | 30 | 118 | 9.7 | 20.9 | 0.00 | 0.05 | 0.05 | 49 | 1007.7 |
| 20260509232405 | 30 | 118 | 11.3 | 24.1 | 0.00 | 0.05 | 0.05 | 48 | 1007.7 |
| 20260509231905 | 30 | 112 | 9.7 | 24.1 | 0.00 | 0.05 | 0.05 | 50 | 1007.7 |
| 20260509231405 | 30 | 126 | 16.1 | 24.1 | 0.00 | 0.05 | 0.05 | 49 | 1007.7 |
| 20260509230905 | 30 | 125 | 12.9 | 25.7 | 0.00 | 0.05 | 0.05 | 53 | 1007.7 |
| 20260509230406 | 30 | 124 | 16.1 | 27.4 | 0.00 | 0.05 | 0.05 | 55 | 1007.6 |
| 20260509225904 | 30 | 114 | 17.7 | 27.4 | 0.00 | 0.05 | 0.05 | 54 | 1007.7 |
| 20260509225404 | 30 | 120 | 19.3 | 27.4 | 0.00 | 0.05 | 0.05 | 51 | 1007.5 |
| 20260509224905 | 31 | 101 | 11.3 | 19.3 | 0.00 | 0.05 | 0.05 | 53 | 1007.6 |
| 20260509224406 | 31 | 132 | 9.7 | 22.5 | 0.00 | 0.05 | 0.05 | 53 | 1007.6 |
| 20260509223905 | 31 | 122 | 14.5 | 22.5 | 0.00 | 0.05 | 0.05 | 53 | 1007.6 |
| 20260509222905 | 31 | 128 | 8.0 | 19.3 | 0.00 | 0.05 | 0.05 | 57 | 1007.5 |
| 20260509222405 | 31 | 114 | 8.0 | 14.5 | 0.00 | 0.05 | 0.05 | 55 | 1007.5 |
| 20260509221905 | 31 | 126 | 4.8 | 12.9 | 0.00 | 0.05 | 0.05 | 55 | 1007.5 |
| 20260509221405 | 30 | 36 | 3.2 | 12.9 | 0.00 | 0.05 | 0.05 | 56 | 1007.5 |
| 20260509215906 | 30 | 122 | 6.4 | 14.5 | 0.00 | 0.05 | 0.05 | 61 | 1007.5 |
| 20260509215405 | 29 | 118 | 8.0 | 11.3 | 0.00 | 0.05 | 0.05 | 59 | 1007.6 |
| 20260509214905 | 29 | 93 | 4.8 | 19.3 | 0.00 | 0.05 | 0.05 | 60 | 1007.7 |
| 20260509214406 | 30 | 125 | 9.7 | 19.3 | 0.00 | 0.05 | 0.05 | 61 | 1007.7 |
| 20260509213905 | 29 | 140 | 11.3 | 19.3 | 0.00 | 0.05 | 0.05 | 60 | 1007.8 |
| 20260509213405 | 28 | 135 | 6.4 | 22.5 | 0.00 | 0.05 | 0.05 | 64 | 1007.9 |
| 20260509212905 | 27 | 145 | 9.7 | 24.1 | 0.00 | 0.05 | 0.05 | 63 | 1008.0 |
| 20260509212405 | 27 | 132 | 14.5 | 27.4 | 0.00 | 0.05 | 0.05 | 63 | 1008.3 |
| 20260509211905 | 27 | 116 | 16.1 | 29.0 | 0.00 | 0.05 | 0.05 | 62 | 1008.3 |
| 20260509211405 | 27 | 127 | 17.7 | 33.8 | 0.00 | 0.05 | 0.05 | 60 | 1008.4 |
| 20260509210905 | 27 | 131 | 19.3 | 33.8 | 0.00 | 0.05 | 0.05 | 58 | 1008.4 |
| 20260509210406 | 26 | 131 | 20.9 | 33.8 | 0.00 | 0.05 | 0.05 | 57 | 1008.5 |
| 20260509205905 | 26 | 128 | 14.5 | 48.3 | 0.00 | 0.05 | 0.05 | 63 | 1008.4 |
| 20260509204906 | 27 | 112 | 27.4 | 41.8 | 0.00 | 0.05 | 0.05 | 54 | 1008.5 |
| 20260509204405 | 28 | 112 | 20.9 | 35.4 | 0.00 | 0.05 | 0.05 | 53 | 1008.4 |
| 20260509203906 | 30 | 115 | 25.7 | 35.4 | 0.00 | 0.05 | 0.05 | 56 | 1008.8 |
| 20260509203405 | 31 | 72 | 9.7 | 22.5 | 0.00 | 0.05 | 0.05 | 53 | 1008.4 |
| 20260509202905 | 31 | 331 | 11.3 | 24.1 | 0.00 | 0.05 | 0.05 | 51 | 1008.5 |
| 20260509202405 | 32 | 352 | 11.3 | 25.7 | 0.00 | 0.05 | 0.05 | 49 | 1008.5 |
| 20260509201906 | 32 | 340 | 19.3 | 25.7 | 0.00 | 0.05 | 0.05 | 50 | 1008.4 |
| 20260509201405 | 32 | 7 | 3.2 | 16.1 | 0.00 | 0.05 | 0.05 | 52 | 1008.5 |
| 20260509200405 | 32 | 328 | 8.0 | 20.9 | 0.00 | 0.05 | 0.05 | 54 | 1008.5 |
| 20260509195906 | 31 | 147 | 3.2 | 20.9 | 0.00 | 0.05 | 0.05 | 53 | 1008.6 |
| 20260509195405 | 32 | 59 | 9.7 | 22.5 | 0.00 | 0.05 | 0.05 | 51 | 1008.7 |
| 20260509193905 | 31 | 0 | 8.0 | 24.1 | 0.00 | 0.05 | 0.05 | 55 | 1008.9 |
| 20260509193405 | 31 | 2 | 4.8 | 24.1 | 0.00 | 0.05 | 0.05 | 56 | 1009.0 |
| 20260509192905 | 31 | 293 | 6.4 | 16.1 | 0.00 | 0.05 | 0.05 | 56 | 1009.0 |
| 20260509192405 | 31 | 348 | 4.8 | 24.1 | 0.00 | 0.05 | 0.05 | 54 | 1009.0 |
| 20260509191405 | 31 | 112 | 1.6 | 19.3 | 0.00 | 0.05 | 0.05 | 58 | 1009.0 |
| 20260509190905 | 31 | 128 | 3.2 | 19.3 | 0.00 | 0.05 | 0.05 | 56 | 1009.2 |
| 20260509190405 | 30 | 293 | 12.9 | 22.5 | 0.00 | 0.05 | 0.05 | 59 | 1009.3 |
| 20260509185905 | 31 | 298 | 14.5 | 22.5 | 0.00 | 0.05 | 0.05 | 54 | 1009.3 |
| 20260509185406 | 31 | 337 | 11.3 | 22.5 | 0.00 | 0.05 | 0.05 | 60 | 1009.4 |
| 20260509184906 | 31 | 116 | 4.8 | 22.5 | 0.00 | 0.05 | 0.05 | 58 | 1009.5 |
| 20260509184405 | 31 | 331 | 6.4 | 22.5 | 0.00 | 0.05 | 0.05 | 59 | 1009.6 |
| 20260509183906 | 31 | 286 | 9.7 | 22.5 | 0.00 | 0.05 | 0.05 | 59 | 1009.8 |
| 20260509183405 | 30 | 314 | 4.8 | 9.7 | 0.00 | 0.05 | 0.05 | 64 | 1009.9 |
| 20260509182906 | 29 | 42 | 1.6 | 9.7 | 0.00 | 0.05 | 0.05 | 62 | 1009.9 |
| 20260509182407 | 30 | 336 | 3.2 | 16.1 | 0.00 | 0.05 | 0.05 | 60 | 1010.0 |
| 20260509181905 | 30 | 331 | 3.2 | 19.3 | 0.00 | 0.05 | 0.05 | 61 | 1010.0 |
| 20260509181405 | 30 | 294 | 8.0 | 19.3 | 0.00 | 0.05 | 0.05 | 60 | 1010.0 |
| 20260509180906 | 31 | 324 | 8.0 | 19.3 | 0.00 | 0.05 | 0.05 | 59 | 1010.1 |
| 20260509180405 | 31 | 354 | 9.7 | 19.3 | 0.00 | 0.05 | 0.05 | 63 | 1010.0 |
| 20260509174905 | 28 | 291 | 8.0 | 19.3 | 0.00 | 0.05 | 0.05 | 68 | 1010.5 |
| 20260509174405 | 28 | 102 | 4.8 | 11.3 | 0.00 | 0.05 | 0.05 | 69 | 1010.4 |
| 20260509173405 | 29 | 287 | 6.4 | 19.3 | 0.00 | 0.05 | 0.05 | 68 | 1010.6 |
| 20260509172905 | 29 | 23 | 4.8 | 19.3 | 0.00 | 0.05 | 0.05 | 67 | 1010.7 |
| 20260509172407 | 29 | 295 | 3.2 | 14.5 | 0.00 | 0.05 | 0.05 | 66 | 1010.6 |
| 20260509171906 | 29 | 343 | 4.8 | 14.5 | 0.00 | 0.05 | 0.05 | 66 | 1010.6 |
| 20260509171405 | 29 | 46 | 4.8 | 14.5 | 0.00 | 0.05 | 0.05 | 68 | 1010.5 |
| 20260509170905 | 28 | 122 | 4.8 | 12.9 | 0.00 | 0.05 | 0.05 | 72 | 1010.6 |
| 20260509170406 | 28 | 353 | 4.8 | 12.9 | 0.00 | 0.05 | 0.05 | 70 | 1010.8 |
| 20260509165906 | 28 | 4 | 4.8 | 19.3 | 0.00 | 0.05 | 0.05 | 73 | 1010.8 |
| 20260509164905 | 27 | 283 | 9.7 | 16.1 | 0.00 | 0.05 | 0.05 | 75 | 1010.7 |
| 20260509164407 | 27 | 299 | 8.0 | 14.5 | 0.00 | 0.05 | 0.05 | 76 | 1010.7 |
| 20260509163905 | 27 | 334 | 3.2 | 14.5 | 0.00 | 0.05 | 0.05 | 78 | 1010.7 |
| 20260509163405 | 28 | 130 | 6.4 | 19.3 | 0.00 | 0.05 | 0.05 | 76 | 1010.8 |
| 20260509162906 | 28 | 356 | 4.8 | 19.3 | 0.00 | 0.05 | 0.05 | 77 | 1010.7 |
| 20260509162406 | 27 | 301 | 8.0 | 25.7 | 0.00 | 0.05 | 0.05 | 78 | 1010.7 |
| 20260509161906 | 27 | 334 | 9.7 | 25.7 | 0.00 | 0.05 | 0.05 | 79 | 1010.6 |
| 20260509161406 | 27 | 321 | 9.7 | 22.5 | 0.00 | 0.05 | 0.05 | 79 | 1010.6 |
| 20260509160406 | 26 | 129 | 8.0 | 19.3 | 0.00 | 0.05 | 0.05 | 83 | 1010.6 |
| 20260509155906 | 26 | 345 | 4.8 | 19.3 | 0.00 | 0.05 | 0.05 | 85 | 1010.7 |
| 20260509154406 | 25 | 119 | 6.4 | 19.3 | 0.00 | 0.05 | 0.05 | 88 | 1010.7 |
| 20260509153405 | 24 | 21 | 8.0 | 19.3 | 0.00 | 0.05 | 0.05 | 92 | 1010.9 |
| 20260509152906 | 23 | 6 | 8.0 | 19.3 | 0.00 | 0.05 | 0.05 | 91 | 1011.0 |
| 20260509152406 | 23 | 61 | 8.0 | 19.3 | 0.00 | 0.05 | 0.05 | 91 | 1010.9 |
| 20260509151906 | 24 | 155 | 8.0 | 16.1 | 0.00 | 0.05 | 0.05 | 90 | 1011.0 |
| 20260509151406 | 23 | 112 | 6.4 | 16.1 | 0.00 | 0.05 | 0.05 | 90 | 1011.0 |
| 20260509150906 | 23 | 124 | 8.0 | 14.5 | 0.00 | 0.05 | 0.05 | 91 | 1011.0 |
| 20260509150405 | 22 | 143 | 6.4 | 14.5 | 0.00 | 0.05 | 0.05 | 91 | 1011.0 |
| 20260509145906 | 22 | 143 | 4.8 | 19.3 | 0.00 | 0.05 | 0.05 | 91 | 1010.9 |
| 20260509145406 | 22 | 132 | 8.0 | 19.3 | 0.00 | 0.05 | 0.05 | 91 | 1010.6 |
| 20260509144905 | 22 | 142 | 9.7 | 19.3 | 0.00 | 0.05 | 0.05 | 91 | 1010.5 |
| 20260509143906 | 22 | 140 | 9.7 | 19.3 | 0.00 | 0.05 | 0.05 | 91 | 1010.5 |
| 20260509143407 | 22 | 142 | 8.0 | 20.9 | 0.00 | 0.05 | 0.05 | 91 | 1010.4 |
| 20260509142906 | 22 | 142 | 9.7 | 20.9 | 0.00 | 0.05 | 0.05 | 91 | 1010.3 |
| 20260509142406 | 22 | 143 | 9.7 | 20.9 | 0.00 | 0.05 | 0.05 | 91 | 1010.2 |
| 20260509141906 | 22 | 154 | 9.7 | 20.9 | 0.00 | 0.05 | 0.05 | 91 | 1010.2 |
| 20260509141406 | 22 | 139 | 9.7 | 19.3 | 0.00 | 0.05 | 0.05 | 91 | 1010.2 |
| 20260509140904 | 22 | 139 | 9.7 | 19.3 | 0.00 | 0.05 | 0.05 | 91 | 1010.2 |
| 20260509134903 | 22 | 331 | 1.6 | 8.0 | 0.00 | 0.05 | 0.05 | 91 | 1010.4 |
| 20260509134403 | 22 | 346 | 1.6 | 9.7 | 0.00 | 0.05 | 0.05 | 91 | 1010.5 |
| 20260509133903 | 22 | 350 | 6.4 | 11.3 | 0.00 | 0.05 | 0.05 | 91 | 1010.6 |
| 20260509133403 | 22 | 323 | 4.8 | 11.3 | 0.00 | 0.05 | 0.05 | 91 | 1010.6 |
| 20260509132903 | 22 | 346 | 3.2 | 8.0 | 0.00 | 0.05 | 0.05 | 91 | 1010.7 |
| 20260509132403 | 22 | 327 | 4.8 | 9.7 | 0.00 | 0.05 | 0.05 | 91 | 1010.7 |
| 20260509131404 | 22 | 86 | 3.2 | 4.8 | 0.00 | 0.05 | 0.05 | 91 | 1010.5 |
| 20260509125904 | 22 | 94 | 3.2 | 12.9 | 0.00 | 0.05 | 0.05 | 91 | 1010.0 |
| 20260509125403 | 22 | 9 | 4.8 | 12.9 | 0.00 | 0.05 | 0.05 | 91 | 1010.0 |
| 20260509124403 | 22 | 358 | 4.8 | 9.7 | 0.00 | 0.05 | 0.05 | 91 | 1010.0 |
| 20260509123903 | 22 | 348 | 3.2 | 9.7 | 0.00 | 0.05 | 0.05 | 91 | 1010.2 |
| 20260509123403 | 22 | 357 | 3.2 | 9.7 | 0.00 | 0.05 | 0.05 | 91 | 1010.1 |
| 20260509122903 | 22 | 17 | 3.2 | 8.0 | 0.00 | 0.05 | 0.05 | 92 | 1010.0 |
| 20260509122403 | 22 | 343 | 4.8 | 8.0 | 0.00 | 0.05 | 0.05 | 92 | 1010.1 |
| 20260509121903 | 22 | 341 | 3.2 | 4.8 | 0.00 | 0.05 | 0.05 | 91 | 1010.2 |
| 20260509121404 | 22 | 32 | 3.2 | 11.3 | 0.00 | 0.05 | 0.05 | 92 | 1010.3 |
| 20260509120904 | 22 | 323 | 4.8 | 12.9 | 0.00 | 0.05 | 0.05 | 92 | 1010.4 |
| 20260509120404 | 22 | 334 | 6.4 | 14.5 | 0.00 | 0.05 | 0.05 | 92 | 1010.3 |
| 20260509115904 | 22 | 345 | 9.7 | 14.5 | 0.00 | 0.05 | 0.05 | 92 | 1010.2 |
| 20260509115403 | 22 | 348 | 8.0 | 14.5 | 0.00 | 0.05 | 0.05 | 92 | 1010.3 |
| 20260509114904 | 22 | 327 | 8.0 | 9.7 | 0.00 | 0.05 | 0.05 | 92 | 1010.2 |
| 20260509114405 | 22 | 337 | 3.2 | 8.0 | 0.00 | 0.05 | 0.05 | 92 | 1010.4 |
| 20260509113903 | 22 | 9 | 3.2 | 9.7 | 0.00 | 0.05 | 0.05 | 92 | 1010.7 |
| 20260509113403 | 22 | 339 | 4.8 | 9.7 | 0.00 | 0.05 | 0.05 | 92 | 1011.0 |
| 20260509112403 | 22 | 336 | 4.8 | 9.7 | 0.00 | 0.05 | 0.05 | 92 | 1010.9 |
| 20260509111903 | 22 | 40 | 3.2 | 9.7 | 0.00 | 0.05 | 0.05 | 92 | 1011.1 |
| 20260509111403 | 22 | 18 | 1.6 | 12.9 | 0.00 | 0.05 | 0.05 | 92 | 1011.0 |
| 20260509110904 | 22 | 4 | 3.2 | 16.1 | 0.00 | 0.05 | 0.05 | 92 | 1011.0 |
| 20260509110403 | 22 | 39 | 8.0 | 16.1 | 0.00 | 0.05 | 0.05 | 92 | 1011.0 |
| 20260509105904 | 22 | 350 | 8.0 | 14.5 | 0.00 | 0.05 | 0.05 | 92 | 1011.1 |
| 20260509105404 | 22 | 344 | 6.4 | 12.9 | 0.03 | 0.05 | 0.05 | 92 | 1011.1 |
| 20260509104904 | 22 | 3 | 8.0 | 12.9 | 0.03 | 0.05 | 0.05 | 92 | 1011.1 |
| 20260509104403 | 22 | 7 | 3.2 | 11.3 | 0.03 | 0.05 | 0.05 | 92 | 1011.0 |
| 20260509103904 | 22 | 24 | 3.2 | 8.0 | 0.03 | 0.05 | 0.05 | 92 | 1011.0 |
| 20260509102904 | 22 | 12 | 3.2 | 8.0 | 0.03 | 0.05 | 0.05 | 92 | 1010.9 |
| 20260509102404 | 22 | 39 | 4.8 | 8.0 | 0.03 | 0.05 | 0.05 | 92 | 1010.7 |
| 20260509101403 | 22 | 99 | 3.2 | 8.0 | 0.03 | 0.05 | 0.05 | 92 | 1010.3 |
| 20260509100903 | 22 | 121 | 4.8 | 8.0 | 0.03 | 0.05 | 0.05 | 92 | 1010.1 |
| 20260509100404 | 22 | 118 | 3.2 | 8.0 | 0.03 | 0.05 | 0.05 | 92 | 1010.0 |
| 20260509095904 | 22 | 113 | 3.2 | 4.8 | 0.03 | 0.05 | 0.05 | 92 | 1009.9 |
| 20260509095404 | 22 | 109 | 3.2 | 12.9 | 0.00 | 0.03 | 0.03 | 92 | 1009.7 |
| 20260509094405 | 22 | 117 | 4.8 | 8.0 | 0.03 | 0.03 | 0.03 | 92 | 1009.7 |
| 20260509093904 | 22 | 110 | 4.8 | 8.0 | 0.03 | 0.03 | 0.03 | 92 | 1009.9 |
| 20260509093404 | 22 | 115 | 3.2 | 4.8 | 0.03 | 0.03 | 0.03 | 92 | 1009.9 |
| 20260509092904 | 22 | 86 | 1.6 | 4.8 | 0.03 | 0.03 | 0.03 | 92 | 1009.9 |
| 20260509092404 | 22 | 71 | 0.0 | 4.8 | 0.03 | 0.03 | 0.03 | 92 | 1009.7 |
| 20260509091904 | 22 | 315 | 1.6 | 4.8 | 0.03 | 0.03 | 0.03 | 92 | 1009.6 |
| 20260509091404 | 22 | 74 | 3.2 | 4.8 | 0.03 | 0.03 | 0.03 | 92 | 1009.6 |
| 20260509090404 | 22 | 92 | 3.2 | 4.8 | 0.03 | 0.03 | 0.03 | 92 | 1009.5 |
| 20260509085904 | 22 | 104 | 3.2 | 4.8 | 0.03 | 0.03 | 0.03 | 92 | 1009.7 |
| 20260509085404 | 22 | 65 | 1.6 | 8.0 | 0.03 | 0.03 | 0.03 | 92 | 1009.7 |
| 20260509084904 | 22 | 136 | 1.6 | 8.0 | 0.00 | 0.00 | 0.00 | 92 | 1009.8 |
| 20260509084404 | 22 | 87 | 3.2 | 8.0 | 0.00 | 0.00 | 0.00 | 92 | 1009.9 |
| 20260509083904 | 22 | 58 | 3.2 | 8.0 | 0.00 | 0.00 | 0.00 | 92 | 1009.9 |
| 20260509083404 | 22 | 51 | 3.2 | 8.0 | 0.00 | 0.00 | 0.00 | 92 | 1009.9 |
| 20260509082905 | 22 | 18 | 1.6 | 8.0 | 0.00 | 0.00 | 0.00 | 92 | 1010.0 |
| 20260509082404 | 22 | 62 | 4.8 | 11.3 | 0.00 | 0.00 | 0.00 | 92 | 1010.0 |
| 20260509081904 | 22 | 34 | 4.8 | 11.3 | 0.00 | 0.00 | 0.00 | 92 | 1009.9 |
| 20260509080404 | 22 | 57 | 1.6 | 4.8 | 0.00 | 0.00 | 0.00 | 92 | 1009.9 |
| 20260509075904 | 22 | 34 | 1.6 | 4.8 | 0.00 | 0.00 | 0.00 | 92 | 1009.7 |
| 20260509075404 | 22 | 118 | 3.2 | 4.8 | 0.00 | 0.00 | 0.00 | 92 | 1009.8 |
| 20260509074904 | 22 | 124 | 1.6 | 11.3 | 0.00 | 0.00 | 0.00 | 92 | 1009.8 |
| 20260509074404 | 22 | 121 | 4.8 | 14.5 | 0.00 | 0.00 | 0.00 | 92 | 1009.7 |
| 20260509073904 | 22 | 120 | 8.0 | 14.5 | 0.00 | 0.00 | 0.00 | 92 | 1009.7 |
| 20260509072404 | 22 | 145 | 6.4 | 11.3 | 0.00 | 0.00 | 0.00 | 92 | 1009.9 |
| 20260509071904 | 22 | 143 | 8.0 | 11.3 | 0.00 | 0.00 | 0.00 | 92 | 1009.9 |
| 20260509071405 | 22 | 146 | 4.8 | 12.9 | 0.00 | 0.00 | 0.00 | 92 | 1010.0 |
| 20260509070904 | 22 | 140 | 4.8 | 12.9 | 0.00 | 0.00 | 0.00 | 92 | 1010.1 |
| 20260509070404 | 22 | 135 | 3.2 | 11.3 | 0.00 | 0.00 | 0.00 | 92 | 1010.1 |
| 20260509065905 | 22 | 151 | 6.4 | 14.5 | 0.00 | 0.00 | 0.00 | 92 | 1010.0 |
| 20260509065404 | 22 | 160 | 8.0 | 16.1 | 0.00 | 0.00 | 0.00 | 92 | 1010.1 |
| 20260509064904 | 22 | 109 | 6.4 | 19.3 | 0.00 | 0.00 | 0.00 | 92 | 1009.9 |
| 20260509064404 | 22 | 145 | 8.0 | 20.9 | 0.00 | 0.00 | 0.00 | 92 | 1009.8 |
| 20260509063904 | 22 | 129 | 8.0 | 20.9 | 0.00 | 0.00 | 0.00 | 92 | 1009.7 |
| 20260509062904 | 22 | 137 | 8.0 | 24.1 | 0.00 | 0.00 | 0.00 | 92 | 1009.4 |
| 20260509062405 | 22 | 134 | 11.3 | 24.1 | 0.00 | 0.00 | 0.00 | 92 | 1009.6 |
| 20260509061905 | 22 | 149 | 11.3 | 20.9 | 0.00 | 0.00 | 0.00 | 92 | 1009.7 |
| 20260509061404 | 22 | 162 | 8.0 | 20.9 | 0.00 | 0.00 | 0.00 | 92 | 1009.7 |
| 20260509060904 | 22 | 145 | 8.0 | 20.9 | 0.00 | 0.00 | 0.00 | 92 | 1009.8 |
| 20260509060404 | 22 | 142 | 9.7 | 20.9 | 0.00 | 0.00 | 0.00 | 92 | 1009.7 |
| 20260509055904 | 22 | 135 | 9.7 | 22.5 | 0.00 | 0.00 | 0.00 | 92 | 1009.6 |
| 20260509055404 | 22 | 134 | 8.0 | 29.0 | 0.00 | 0.00 | 0.00 | 92 | 1009.5 |
| 20260509054904 | 22 | 136 | 11.3 | 33.8 | 0.00 | 0.00 | 0.00 | 92 | 1009.4 |
| 20260509054404 | 22 | 141 | 16.1 | 33.8 | 0.00 | 0.00 | 0.00 | 92 | 1009.6 |
| 20260509053904 | 22 | 138 | 9.7 | 19.3 | 0.00 | 0.00 | 0.00 | 92 | 1009.6 |
| 20260509051905 | 22 | 140 | 9.7 | 19.3 | 0.00 | 0.00 | 0.00 | 92 | 1009.6 |
| 20260509051405 | 22 | 151 | 8.0 | 14.5 | 0.00 | 0.00 | 0.00 | 92 | 1009.5 |
| 20260509050404 | 22 | 132 | 8.0 | 16.1 | 0.00 | 0.00 | 0.00 | 92 | 1009.3 |
| 20260509045904 | 22 | 128 | 9.7 | 16.1 | 0.00 | 0.00 | 0.00 | 92 | 1009.3 |